TimeGMT,TemperatureF,Dew PointF,Humidity,Sea Level PressureIn,VisibilityMPH,Wind Direction,Wind SpeedMPH,Gust SpeedMPH,PrecipitationIn,Events,Conditions,WindDirDegrees,DateUTC
12:20 AM,35.6,28.4,75,30.27,6.2,North,10.4,-,N/A,,Mostly Cloudy,360,2013-02-25 00:20:00
12:50 AM,35.6,28.4,75,30.27,6.2,North,9.2,-,N/A,,Mostly Cloudy,360,2013-02-25 00:50:00
1:20 AM,35.6,28.4,75,30.27,6.2,NNW,8.1,-,N/A,,Mostly Cloudy,340,2013-02-25 01:20:00
1:50 AM,33.8,28.4,81,30.27,6.2,NNW,6.9,-,N/A,,Overcast,330,2013-02-25 01:50:00
2:20 AM,35.6,28.4,75,30.27,6.2,North,6.9,-,N/A,,Overcast,350,2013-02-25 02:20:00
2:50 AM,35,31,78,30.28,7,North,9.2,,,Rain,Light Rain Showers,350,2013-02-25 02:50:00
2:50 AM,33.8,30.2,87,30.27,5.6,North,9.2,-,N/A,Rain-Snow,Light Rain,350,2013-02-25 02:50:00
3:20 AM,35.6,30.2,81,30.27,6.2,North,8.1,-,N/A,,Mostly Cloudy,360,2013-02-25 03:20:00
3:50 AM,35.6,32.0,87,30.27,6.2,North,8.1,-,N/A,,Mostly Cloudy,360,2013-02-25 03:50:00
4:20 AM,35.6,32.0,87,30.27,6.2,North,8.1,-,N/A,,Mostly Cloudy,10,2013-02-25 04:20:00
4:50 AM,35.6,32.0,87,30.27,6.2,North,8.1,-,N/A,,Mostly Cloudy,10,2013-02-25 04:50:00
5:20 AM,35.6,32.0,87,30.27,6.2,North,6.9,-,N/A,,Mostly Cloudy,10,2013-02-25 05:20:00
5:50 AM,36,32,81,30.30,7,North,8.1,,,,Unknown Precipitation,10,2013-02-25 05:50:00
5:50 AM,35.6,32.0,87,30.30,6.2,North,6.9,-,N/A,,Mostly Cloudy,10,2013-02-25 05:50:00
6:20 AM,35.6,32.0,87,30.30,6.2,NNE,6.9,-,N/A,,Mostly Cloudy,20,2013-02-25 06:20:00
6:50 AM,35.6,32.0,87,30.30,6.2,North,6.9,-,N/A,,Mostly Cloudy,10,2013-02-25 06:50:00
7:20 AM,35.6,32.0,87,30.33,6.2,NNE,6.9,-,N/A,,Mostly Cloudy,20,2013-02-25 07:20:00
7:50 AM,35.6,32.0,87,30.33,6.2,North,6.9,-,N/A,,Mostly Cloudy,10,2013-02-25 07:50:00
8:20 AM,37.4,32.0,81,30.33,6.2,North,6.9,-,N/A,,Mostly Cloudy,10,2013-02-25 08:20:00
8:50 AM,37,33,81,30.35,5,NNE,8.1,,,,Unknown Precipitation,20,2013-02-25 08:50:00
8:50 AM,37.4,33.8,87,30.33,5.0,NNE,8.1,-,N/A,,Mostly Cloudy,30,2013-02-25 08:50:00
9:20 AM,37.4,33.8,87,30.36,5.0,NNE,8.1,-,N/A,,Mostly Cloudy,30,2013-02-25 09:20:00
9:50 AM,39.2,33.8,81,30.36,6.2,North,8.1,-,N/A,,Mostly Cloudy,10,2013-02-25 09:50:00
10:20 AM,37.4,33.8,87,30.36,6.2,NNE,6.9,-,N/A,,Mostly Cloudy,20,2013-02-25 10:20:00
10:50 AM,39.2,33.8,81,30.36,5.6,North,6.9,-,N/A,,Mostly Cloudy,10,2013-02-25 10:50:00
11:20 AM,39.2,33.8,81,30.36,6.2,NNE,8.1,-,N/A,,Mostly Cloudy,20,2013-02-25 11:20:00
11:50 AM,39,32,69,30.38,9,NNE,10.4,,,Rain,Rain,20,2013-02-25 11:50:00
11:50 AM,39.2,32.0,75,30.36,6.2,NNE,9.2,-,N/A,,Mostly Cloudy,20,2013-02-25 11:50:00
12:20 PM,39.2,32.0,75,30.36,6.2,NNE,6.9,-,N/A,,Mostly Cloudy,20,2013-02-25 12:20:00
12:50 PM,39.2,33.8,81,30.36,6.2,NNE,8.1,-,N/A,,Mostly Cloudy,20,2013-02-25 12:50:00
1:20 PM,39.2,33.8,81,30.36,5.6,NNE,6.9,-,N/A,,Mostly Cloudy,30,2013-02-25 13:20:00
1:50 PM,39.2,33.8,81,30.36,5.6,North,9.2,-,N/A,,Mostly Cloudy,10,2013-02-25 13:50:00
2:20 PM,39.2,33.8,81,30.33,6.2,North,9.2,-,N/A,,Mostly Cloudy,10,2013-02-25 14:20:00
2:50 PM,40,34,72,30.35,6,NNE,9.2,,,,Mostly Cloudy,30,2013-02-25 14:50:00
2:50 PM,39.2,33.8,81,30.33,6.2,NNE,8.1,-,N/A,,Mostly Cloudy,30,2013-02-25 14:50:00
3:20 PM,39.2,33.8,81,30.36,6.2,NNE,8.1,-,N/A,,Mostly Cloudy,20,2013-02-25 15:20:00
3:50 PM,39.2,33.8,81,30.36,6.2,NNE,9.2,-,N/A,,Mostly Cloudy,30,2013-02-25 15:50:00
4:20 PM,39.2,33.8,81,30.36,6.2,NNE,8.1,-,N/A,,Mostly Cloudy,20,2013-02-25 16:20:00
4:50 PM,39.2,33.8,81,30.36,6.2,NNE,8.1,-,N/A,,Mostly Cloudy,20,2013-02-25 16:50:00
5:20 PM,39.2,33.8,81,30.36,6.2,NNE,9.2,-,N/A,,Mostly Cloudy,20,2013-02-25 17:20:00
5:50 PM,39,34,77,30.37,6,NNE,8.1,,,,Overcast,20,2013-02-25 17:50:00
5:50 PM,39.2,33.8,81,30.36,6.2,North,9.2,-,N/A,,Mostly Cloudy,10,2013-02-25 17:50:00
6:20 PM,39.2,33.8,81,30.36,6.2,North,8.1,-,N/A,,Mostly Cloudy,10,2013-02-25 18:20:00
6:50 PM,39.2,33.8,81,30.36,6.2,NNE,9.2,-,N/A,,Mostly Cloudy,20,2013-02-25 18:50:00
7:20 PM,39.2,33.8,81,30.36,5.6,NNE,10.4,-,N/A,,Mostly Cloudy,30,2013-02-25 19:20:00
7:50 PM,39.2,35.6,87,30.36,5.6,NNE,10.4,-,N/A,,Mostly Cloudy,20,2013-02-25 19:50:00
8:20 PM,39.2,35.6,87,30.36,5.6,NNE,10.4,-,N/A,,Mostly Cloudy,20,2013-02-25 20:20:00
8:50 PM,39,35,81,30.38,6,NNE,12.7,,,Rain,Drizzle,20,2013-02-25 20:50:00
8:50 PM,39.2,35.6,87,30.39,5.0,NNE,9.2,-,N/A,,Mostly Cloudy,30,2013-02-25 20:50:00
9:20 PM,39.2,35.6,87,30.39,5.0,NE,11.5,-,N/A,,Mostly Cloudy,40,2013-02-25 21:20:00
9:50 PM,39.2,33.8,81,30.39,5.0,NNE,11.5,-,N/A,,Mostly Cloudy,30,2013-02-25 21:50:00
10:20 PM,37.4,33.8,87,30.39,4.3,NE,12.7,-,N/A,,Mostly Cloudy,40,2013-02-25 22:20:00
10:50 PM,37.4,33.8,87,30.39,5.6,NNE,12.7,-,N/A,,Mostly Cloudy,30,2013-02-25 22:50:00
11:20 PM,37.4,33.8,87,30.39,6.2,NE,10.4,-,N/A,,Mostly Cloudy,40,2013-02-25 23:20:00
11:50 PM,38,34,79,30.40,6,NE,15.0,,,,Unknown Precipitation,40,2013-02-25 23:50:00
11:50 PM,37.4,33.8,87,30.39,5.6,NE,11.5,-,N/A,,Light Drizzle,40,2013-02-25 23:50:00